DLH5CF LICA-EDDM

Flight info

Callsign DLH5CF
Flight time 1h 35m
Altitude 38000
Route ARBUM DCT EVINO DCT BEDPI DCT IBENI DCT PESUT DCT RASTA DCT REDBU Q112 NAPSA NAPSA1B
Aircraft A320/M-SDE2E3FGIJ1LORWXYZ/HB1

Departure

Time 2026-05-05 15:41
Airport Lamezia Terme Sant'Eufemia International Airport (LICA)

Arrival

Time 2026-05-05 17:17
Airport Munich Airport (EDDM)
Time Latitude Longitude Altitude Speed Heading
2026-05-05 15:13 38.90841 16.24770 31 ft 0 kts 54°
2026-05-05 15:35 38.90840 16.24774 32 ft 0 kts 84°
2026-05-05 15:35 38.90836 16.24777 32 ft 0 kts 130°
2026-05-05 15:36 38.90830 16.24772 32 ft 2 kts 198°
2026-05-05 15:36 38.90788 16.24757 32 ft 9 kts 176°
2026-05-05 15:36 38.90767 16.24830 32 ft 10 kts 95°
2026-05-05 15:36 38.90741 16.24910 32 ft 9 kts 144°
2026-05-05 15:37 38.90680 16.24968 33 ft 11 kts 128°
2026-05-05 15:37 38.90667 16.25057 31 ft 11 kts 98°
2026-05-05 15:37 38.90654 16.25169 34 ft 13 kts 98°
2026-05-05 15:37 38.90641 16.25284 33 ft 13 kts 98°
2026-05-05 15:38 38.90626 16.25408 33 ft 15 kts 98°
2026-05-05 15:38 38.90609 16.25559 31 ft 19 kts 98°
2026-05-05 15:38 38.90589 16.25739 32 ft 22 kts 99°
2026-05-05 15:38 38.90565 16.25939 34 ft 23 kts 98°
2026-05-05 15:39 38.90546 16.26100 33 ft 14 kts 98°
2026-05-05 15:39 38.90533 16.26212 33 ft 12 kts 98°
2026-05-05 15:39 38.90500 16.26292 33 ft 10 kts 147°
2026-05-05 15:39 38.90414 16.26297 32 ft 15 kts 189°
2026-05-05 15:40 38.90320 16.26251 34 ft 15 kts 233°
2026-05-05 15:40 38.90314 16.26165 34 ft 0 kts 279°
2026-05-05 15:40 38.90315 16.26163 34 ft 0 kts 279°
2026-05-05 15:40 38.90316 16.26150 34 ft 7 kts 279°
2026-05-05 15:41 38.90363 16.25742 33 ft 84 kts 278°
2026-05-05 15:41 38.90483 16.24724 33 ft 143 kts 278°
2026-05-05 15:41 38.90636 16.23380 564 ft 152 kts 278°
2026-05-05 15:41 38.90812 16.22038 1312 ft 154 kts 278°
2026-05-05 15:42 38.90995 16.20573 1732 ft 177 kts 279°
2026-05-05 15:42 38.91189 16.18920 2123 ft 199 kts 280°
2026-05-05 15:42 38.91402 16.17049 2563 ft 224 kts 279°
2026-05-05 15:42 38.91636 16.14963 3079 ft 248 kts 278°
2026-05-05 15:43 38.91956 16.12722 3828 ft 260 kts 290°
2026-05-05 15:43 38.92919 16.10751 4798 ft 264 kts 309°
2026-05-05 15:43 38.94111 16.08956 5861 ft 265 kts 309°
2026-05-05 15:43 38.95312 16.07148 6817 ft 268 kts 309°
2026-05-05 15:44 38.96118 16.05933 7426 ft 270 kts 309°
2026-05-05 15:44 38.97341 16.04083 8374 ft 274 kts 309°
2026-05-05 15:44 38.98578 16.02209 9334 ft 277 kts 308°
2026-05-05 15:44 38.99837 16.00299 10241 ft 281 kts 308°
2026-05-05 15:45 39.01598 15.97619 10760 ft 311 kts 308°
2026-05-05 15:45 39.03106 15.95530 11314 ft 325 kts 316°
2026-05-05 15:45 39.04332 15.94325 11828 ft 331 kts 324°
2026-05-05 15:45 39.07085 15.92533 12873 ft 339 kts 332°
2026-05-05 15:46 39.08548 15.91676 13393 ft 342 kts 332°
2026-05-05 15:46 39.10724 15.90401 14138 ft 346 kts 332°
2026-05-05 15:46 39.12918 15.89112 14816 ft 349 kts 332°
2026-05-05 15:46 39.15144 15.87800 15490 ft 353 kts 332°
2026-05-05 15:47 39.17392 15.86472 16140 ft 358 kts 332°
2026-05-05 15:47 39.19668 15.85120 16785 ft 363 kts 332°
2026-05-05 15:47 39.21970 15.83748 17443 ft 366 kts 332°
2026-05-05 15:47 39.24298 15.82362 18110 ft 370 kts 332°
2026-05-05 15:48 39.26645 15.80951 18718 ft 373 kts 329°
2026-05-05 15:48 39.28833 15.79170 19290 ft 373 kts 319°
2026-05-05 15:48 39.30818 15.77011 19876 ft 374 kts 316°
2026-05-05 15:48 39.32804 15.74819 20433 ft 377 kts 316°
2026-05-05 15:49 39.34809 15.72606 20965 ft 380 kts 316°
2026-05-05 15:49 39.36830 15.70381 21528 ft 383 kts 316°
2026-05-05 15:49 39.38866 15.68140 22065 ft 386 kts 316°
2026-05-05 15:49 39.40919 15.65874 22605 ft 389 kts 316°
2026-05-05 15:50 39.42984 15.63591 23143 ft 392 kts 316°
2026-05-05 15:50 39.45065 15.61292 23663 ft 395 kts 316°
2026-05-05 15:50 39.47132 15.59008 24092 ft 398 kts 316°
2026-05-05 15:50 39.49272 15.56644 24550 ft 399 kts 316°
2026-05-05 15:51 39.51358 15.54334 24986 ft 401 kts 316°
2026-05-05 15:51 39.53484 15.51974 25435 ft 403 kts 315°
2026-05-05 15:51 39.55615 15.49608 25871 ft 405 kts 315°
2026-05-05 15:51 39.57759 15.47230 26312 ft 407 kts 315°
2026-05-05 15:52 39.59912 15.44841 26733 ft 408 kts 315°
2026-05-05 15:52 39.62073 15.42440 27152 ft 410 kts 315°
2026-05-05 15:52 39.64243 15.40025 27567 ft 412 kts 315°
2026-05-05 15:52 39.66419 15.37595 27979 ft 414 kts 315°
2026-05-05 15:53 39.68610 15.35155 28388 ft 416 kts 316°
2026-05-05 15:53 39.71004 15.32991 28775 ft 424 kts 326°
2026-05-05 15:53 39.73692 15.31362 29154 ft 432 kts 335°
2026-05-05 15:53 39.76599 15.30266 29523 ft 437 kts 340°
2026-05-05 15:54 39.79545 15.29248 29874 ft 439 kts 340°
2026-05-05 15:54 39.82505 15.28215 30194 ft 441 kts 340°
2026-05-05 15:54 39.85469 15.27170 30482 ft 443 kts 340°
2026-05-05 15:54 39.88450 15.26115 30786 ft 445 kts 340°
2026-05-05 15:55 39.91446 15.25052 31123 ft 445 kts 339°
2026-05-05 15:55 39.94434 15.23995 31458 ft 445 kts 339°
2026-05-05 15:55 39.97416 15.22939 31886 ft 443 kts 339°
2026-05-05 15:55 40.00387 15.21891 32321 ft 441 kts 339°
2026-05-05 15:56 40.03349 15.20849 32747 ft 439 kts 339°
2026-05-05 15:56 40.06277 15.19813 33153 ft 438 kts 339°
2026-05-05 15:56 40.09208 15.18775 33577 ft 436 kts 339°
2026-05-05 15:56 40.12132 15.17741 34000 ft 434 kts 339°
2026-05-05 15:57 40.15043 15.16710 34370 ft 433 kts 339°
2026-05-05 15:57 40.17951 15.15676 34734 ft 432 kts 339°
2026-05-05 15:57 40.20844 15.14645 35108 ft 430 kts 339°
2026-05-05 15:57 40.23725 15.13618 35465 ft 428 kts 339°
2026-05-05 15:58 40.26589 15.12595 35821 ft 426 kts 339°
2026-05-05 15:58 40.29438 15.11578 36151 ft 424 kts 339°
2026-05-05 15:58 40.32280 15.10565 36490 ft 422 kts 339°
2026-05-05 15:58 40.35107 15.09553 36819 ft 420 kts 339°
2026-05-05 15:59 40.37923 15.08541 37108 ft 419 kts 338°
2026-05-05 15:59 40.40734 15.07532 37377 ft 419 kts 338°
2026-05-05 15:59 40.43541 15.06525 37676 ft 418 kts 338°
2026-05-05 15:59 40.46343 15.05519 37986 ft 417 kts 338°
2026-05-05 16:00 40.49137 15.04515 38092 ft 416 kts 338°
2026-05-05 16:00 40.54710 15.02512 38107 ft 415 kts 338°
2026-05-05 16:01 40.60279 15.00514 38106 ft 415 kts 338°
2026-05-05 16:01 40.65856 14.98507 38111 ft 416 kts 338°
2026-05-05 16:02 40.71400 14.96499 38112 ft 416 kts 338°
2026-05-05 16:02 40.77020 14.94464 38110 ft 416 kts 338°
2026-05-05 16:03 40.82566 14.92446 38120 ft 417 kts 338°
2026-05-05 16:03 40.88164 14.90405 38095 ft 418 kts 338°
2026-05-05 16:04 40.93787 14.88355 38098 ft 420 kts 338°
2026-05-05 16:04 40.99433 14.86303 38098 ft 421 kts 338°
2026-05-05 16:05 41.05078 14.84247 38109 ft 421 kts 338°
2026-05-05 16:05 41.10722 14.82188 38113 ft 421 kts 338°
2026-05-05 16:06 41.16373 14.80120 38098 ft 421 kts 338°
2026-05-05 16:06 41.22022 14.78040 38102 ft 421 kts 338°
2026-05-05 16:07 41.27696 14.76025 38095 ft 423 kts 340°
2026-05-05 16:07 41.33460 14.74328 38090 ft 425 kts 341°
2026-05-05 16:08 41.39250 14.72737 38081 ft 425 kts 341°
2026-05-05 16:08 41.45022 14.71085 38075 ft 424 kts 340°
2026-05-05 16:09 41.50782 14.69374 38060 ft 424 kts 340°
2026-05-05 16:09 41.56542 14.67648 38054 ft 425 kts 340°
2026-05-05 16:10 41.62312 14.65933 38047 ft 425 kts 340°
2026-05-05 16:10 41.68082 14.64224 38056 ft 425 kts 340°
2026-05-05 16:11 41.73816 14.62523 38036 ft 425 kts 340°
2026-05-05 16:12 41.85380 14.59073 38009 ft 426 kts 340°
2026-05-05 16:13 41.99846 14.54738 37997 ft 427 kts 340°
2026-05-05 16:13 42.05639 14.53006 38001 ft 427 kts 340°
2026-05-05 16:14 42.17226 14.49511 38017 ft 427 kts 340°
2026-05-05 16:15 42.28822 14.46001 38025 ft 427 kts 340°
2026-05-05 16:16 42.40431 14.42478 38047 ft 427 kts 340°
2026-05-05 16:17 42.49113 14.39840 38039 ft 426 kts 340°
2026-05-05 16:18 42.57785 14.37187 38040 ft 426 kts 340°
2026-05-05 16:19 42.66449 14.34529 38033 ft 425 kts 340°
2026-05-05 16:19 42.75112 14.31871 38032 ft 425 kts 341°
2026-05-05 16:20 42.86652 14.28313 38016 ft 425 kts 341°
2026-05-05 16:22 43.01065 14.23841 38022 ft 425 kts 341°
2026-05-05 16:23 43.12606 14.20251 38013 ft 425 kts 340°
2026-05-05 16:23 43.21268 14.17566 38011 ft 426 kts 340°
2026-05-05 16:24 43.27046 14.15758 38008 ft 426 kts 340°
2026-05-05 16:25 43.35724 14.13029 38013 ft 427 kts 340°
2026-05-05 16:25 43.44382 14.10306 37987 ft 428 kts 341°
2026-05-05 16:26 43.56020 14.06634 38002 ft 430 kts 341°
2026-05-05 16:27 43.61858 14.04781 37986 ft 431 kts 341°
2026-05-05 16:27 43.67708 14.02930 37986 ft 432 kts 341°
2026-05-05 16:28 43.73573 14.01072 37987 ft 433 kts 341°
2026-05-05 16:28 43.79449 13.99206 37994 ft 434 kts 341°
2026-05-05 16:29 43.85336 13.97326 37986 ft 435 kts 341°
2026-05-05 16:29 43.91234 13.95432 37981 ft 435 kts 341°
2026-05-05 16:30 43.97144 13.93535 37986 ft 436 kts 341°
2026-05-05 16:30 44.03129 13.92000 37985 ft 443 kts 351°
2026-05-05 16:31 44.08292 13.91557 37985 ft 443 kts 351°
2026-05-05 16:31 44.14451 13.91008 37995 ft 444 kts 351°
2026-05-05 16:32 44.20566 13.90451 38009 ft 443 kts 351°
2026-05-05 16:32 44.26718 13.89901 38021 ft 443 kts 351°
2026-05-05 16:33 44.32868 13.89349 38012 ft 443 kts 351°
2026-05-05 16:33 44.39025 13.88797 38006 ft 444 kts 351°
2026-05-05 16:34 44.45190 13.88249 37996 ft 444 kts 351°
2026-05-05 16:34 44.51365 13.87695 37997 ft 445 kts 351°
2026-05-05 16:35 44.57546 13.87133 38010 ft 445 kts 351°
2026-05-05 16:35 44.63737 13.86569 38012 ft 446 kts 351°
2026-05-05 16:36 44.69938 13.86003 38018 ft 447 kts 352°
2026-05-05 16:36 44.76141 13.85438 38033 ft 447 kts 352°
2026-05-05 16:37 44.82358 13.84863 38036 ft 448 kts 352°
2026-05-05 16:37 44.88576 13.84296 38035 ft 448 kts 352°
2026-05-05 16:38 44.94798 13.83734 38046 ft 448 kts 352°
2026-05-05 16:38 45.01020 13.83162 38026 ft 448 kts 352°
2026-05-05 16:39 45.07244 13.82587 38019 ft 449 kts 352°
2026-05-05 16:39 45.13479 13.82006 38034 ft 449 kts 352°
2026-05-05 16:40 45.19722 13.81429 38013 ft 450 kts 352°
2026-05-05 16:40 45.25967 13.80856 38013 ft 450 kts 352°
2026-05-05 16:41 45.32210 13.80273 38006 ft 450 kts 352°
2026-05-05 16:41 45.38459 13.79693 38010 ft 450 kts 352°
2026-05-05 16:42 45.44716 13.79111 38007 ft 451 kts 352°
2026-05-05 16:42 45.50981 13.78519 37999 ft 451 kts 352°
2026-05-05 16:43 45.57246 13.77926 38023 ft 451 kts 352°
2026-05-05 16:43 45.63518 13.77337 38024 ft 452 kts 353°
2026-05-05 16:44 45.69792 13.76747 38026 ft 452 kts 353°
2026-05-05 16:44 45.76032 13.76159 38039 ft 452 kts 352°
2026-05-05 16:45 45.82356 13.75567 38029 ft 453 kts 352°
2026-05-05 16:45 45.88599 13.74979 38026 ft 453 kts 352°
2026-05-05 16:46 45.94887 13.74384 38024 ft 453 kts 352°
2026-05-05 16:46 46.01173 13.73784 38024 ft 453 kts 352°
2026-05-05 16:47 46.07461 13.73177 38031 ft 453 kts 352°
2026-05-05 16:47 46.13795 13.72564 38036 ft 453 kts 352°
2026-05-05 16:48 46.20090 13.71964 38041 ft 454 kts 352°
2026-05-05 16:48 46.26292 13.70957 38025 ft 450 kts 345°
2026-05-05 16:49 46.32458 13.69344 38017 ft 451 kts 346°
2026-05-05 16:49 46.38633 13.67735 38016 ft 451 kts 345°
2026-05-05 16:50 46.44824 13.66120 38010 ft 452 kts 345°
2026-05-05 16:50 46.51008 13.64493 38004 ft 452 kts 345°
2026-05-05 16:51 46.57204 13.62860 38001 ft 453 kts 345°
2026-05-05 16:51 46.63397 13.61236 38004 ft 452 kts 345°
2026-05-05 16:52 46.69583 13.59609 37987 ft 451 kts 346°
2026-05-05 16:52 46.75762 13.57975 37977 ft 451 kts 345°
2026-05-05 16:53 46.81941 13.56336 37979 ft 451 kts 346°
2026-05-05 16:53 46.88115 13.54688 37979 ft 451 kts 346°
2026-05-05 16:54 46.94201 13.53062 37948 ft 451 kts 346°
2026-05-05 16:54 47.00382 13.51408 37921 ft 451 kts 346°
2026-05-05 16:55 47.06497 13.49771 37559 ft 447 kts 346°
2026-05-05 16:55 47.09549 13.48955 36835 ft 446 kts 346°
2026-05-05 16:55 47.12609 13.48131 36070 ft 448 kts 346°
2026-05-05 16:56 47.15721 13.47293 35280 ft 451 kts 346°
2026-05-05 16:56 47.18778 13.46471 34453 ft 454 kts 346°
2026-05-05 16:56 47.21932 13.45621 33642 ft 457 kts 345°
2026-05-05 16:56 47.25018 13.44788 32815 ft 457 kts 346°
2026-05-05 16:57 47.28142 13.43947 32092 ft 455 kts 346°
2026-05-05 16:57 47.31245 13.43114 31422 ft 452 kts 346°
2026-05-05 16:57 47.34329 13.42283 30756 ft 449 kts 346°
2026-05-05 16:57 47.37395 13.41447 30067 ft 448 kts 346°
2026-05-05 16:58 47.40457 13.40609 29368 ft 447 kts 346°
2026-05-05 16:58 47.43478 13.39784 28705 ft 444 kts 346°
2026-05-05 16:58 47.46489 13.38853 28033 ft 440 kts 341°
2026-05-05 16:58 47.49328 13.37305 27419 ft 432 kts 331°
2026-05-05 16:59 47.51920 13.35129 26838 ft 424 kts 322°
2026-05-05 16:59 47.54230 13.32471 26244 ft 419 kts 316°
2026-05-05 16:59 47.56480 13.29735 25709 ft 417 kts 317°
2026-05-05 16:59 47.58714 13.27026 25179 ft 414 kts 317°
2026-05-05 17:00 47.60933 13.24337 24637 ft 410 kts 317°
2026-05-05 17:00 47.63133 13.21668 24090 ft 408 kts 317°
2026-05-05 17:00 47.65323 13.19007 23543 ft 405 kts 317°
2026-05-05 17:00 47.67488 13.16374 22979 ft 402 kts 317°
2026-05-05 17:01 47.69643 13.13748 22398 ft 399 kts 317°
2026-05-05 17:01 47.71782 13.11136 21914 ft 396 kts 317°
2026-05-05 17:01 47.73900 13.08546 21374 ft 393 kts 317°
2026-05-05 17:01 47.75999 13.05976 20871 ft 390 kts 317°
2026-05-05 17:02 47.78080 13.03420 20379 ft 386 kts 317°
2026-05-05 17:02 47.80141 13.00883 19899 ft 383 kts 317°
2026-05-05 17:02 47.82186 12.98368 19410 ft 380 kts 317°
2026-05-05 17:02 47.84135 12.95765 18933 ft 374 kts 309°
2026-05-05 17:03 47.85868 12.92902 18484 ft 371 kts 309°
2026-05-05 17:03 47.87586 12.90061 18046 ft 368 kts 309°
2026-05-05 17:03 47.89293 12.87237 17555 ft 365 kts 309°
2026-05-05 17:03 47.90986 12.84437 17087 ft 362 kts 309°
2026-05-05 17:04 47.92665 12.81655 16615 ft 359 kts 309°
2026-05-05 17:04 47.94318 12.78902 16189 ft 356 kts 309°
2026-05-05 17:04 47.95964 12.76152 15748 ft 353 kts 309°
2026-05-05 17:04 47.97593 12.73430 15317 ft 350 kts 309°
2026-05-05 17:05 47.99214 12.70723 14890 ft 348 kts 309°
2026-05-05 17:05 48.00815 12.68046 14478 ft 345 kts 309°
2026-05-05 17:05 48.02408 12.65383 14068 ft 342 kts 309°
2026-05-05 17:05 48.03984 12.62746 13672 ft 339 kts 309°
2026-05-05 17:06 48.05549 12.60120 13235 ft 337 kts 309°
2026-05-05 17:06 48.07099 12.57506 12777 ft 335 kts 308°
2026-05-05 17:06 48.08627 12.54929 12302 ft 333 kts 308°
2026-05-05 17:06 48.10162 12.52339 11859 ft 331 kts 308°
2026-05-05 17:07 48.11686 12.49773 11400 ft 329 kts 308°
2026-05-05 17:07 48.13204 12.47217 10936 ft 327 kts 308°
2026-05-05 17:07 48.14712 12.44673 10479 ft 326 kts 308°
2026-05-05 17:07 48.16204 12.42153 10204 ft 318 kts 308°
2026-05-05 17:08 48.17645 12.39725 10078 ft 306 kts 308°
2026-05-05 17:08 48.19034 12.37382 9942 ft 296 kts 308°
2026-05-05 17:08 48.20392 12.35086 9647 ft 293 kts 307°
2026-05-05 17:08 48.21732 12.32806 9268 ft 291 kts 308°
2026-05-05 17:09 48.23064 12.30537 8909 ft 289 kts 308°
2026-05-05 17:09 48.24369 12.28317 8559 ft 286 kts 308°
2026-05-05 17:09 48.25698 12.26053 8186 ft 284 kts 308°
2026-05-05 17:09 48.27001 12.23833 7810 ft 283 kts 308°
2026-05-05 17:10 48.28293 12.21631 7511 ft 278 kts 308°
2026-05-05 17:10 48.29523 12.19543 7382 ft 261 kts 308°
2026-05-05 17:10 48.30678 12.17588 7256 ft 241 kts 307°
2026-05-05 17:10 48.31754 12.15759 7100 ft 226 kts 307°
2026-05-05 17:11 48.32757 12.14047 6965 ft 209 kts 307°
2026-05-05 17:11 48.33677 12.12476 6668 ft 200 kts 307°
2026-05-05 17:11 48.34589 12.10912 6290 ft 197 kts 307°
2026-05-05 17:11 48.35472 12.09369 5833 ft 191 kts 304°
2026-05-05 17:12 48.36091 12.07639 5239 ft 187 kts 288°
2026-05-05 17:12 48.36290 12.05738 4792 ft 183 kts 270°
2026-05-05 17:12 48.36212 12.03811 4542 ft 185 kts 267°
2026-05-05 17:12 48.36086 12.01901 4277 ft 184 kts 266°
2026-05-05 17:13 48.35948 11.99975 4045 ft 184 kts 266°
2026-05-05 17:13 48.35808 11.98098 3792 ft 175 kts 266°
2026-05-05 17:13 48.35677 11.96348 3576 ft 163 kts 267°
2026-05-05 17:13 48.35554 11.94718 3370 ft 152 kts 267°
2026-05-05 17:14 48.35439 11.93189 3173 ft 142 kts 268°
2026-05-05 17:14 48.35330 11.91713 2977 ft 142 kts 269°
2026-05-05 17:14 48.35225 11.90241 2791 ft 141 kts 268°
2026-05-05 17:14 48.35121 11.88784 2608 ft 140 kts 266°
2026-05-05 17:15 48.35024 11.87339 2438 ft 139 kts 266°
2026-05-05 17:15 48.34898 11.85907 2234 ft 137 kts 266°
2026-05-05 17:15 48.34790 11.84488 2033 ft 138 kts 265°
2026-05-05 17:15 48.34676 11.83046 1861 ft 139 kts 264°
2026-05-05 17:16 48.34566 11.81580 1681 ft 143 kts 265°
2026-05-05 17:16 48.34489 11.80584 1554 ft 146 kts 264°
2026-05-05 17:16 48.34381 11.79137 1485 ft 122 kts 263°
2026-05-05 17:16 48.34301 11.78130 1485 ft 70 kts 263°
2026-05-05 17:17 48.34255 11.77530 1476 ft 49 kts 264°
2026-05-05 17:17 48.34282 11.77182 1478 ft 20 kts 290°
2026-05-05 17:17 48.34339 11.76987 1476 ft 21 kts 292°
2026-05-05 17:17 48.34400 11.76770 1480 ft 23 kts 298°
2026-05-05 17:18 48.34524 11.76691 1482 ft 18 kts 353°
2026-05-05 17:18 48.34578 11.76779 1485 ft 14 kts 82°
2026-05-05 17:18 48.34588 11.76924 1481 ft 14 kts 83°
2026-05-05 17:18 48.34600 11.77071 1483 ft 14 kts 83°
2026-05-05 17:19 48.34611 11.77222 1474 ft 15 kts 83°
2026-05-05 17:19 48.34624 11.77383 1472 ft 16 kts 83°
2026-05-05 17:19 48.34638 11.77560 1485 ft 18 kts 83°
2026-05-05 17:19 48.34653 11.77762 1475 ft 21 kts 83°
2026-05-05 17:20 48.34671 11.77988 1485 ft 23 kts 83°
2026-05-05 17:20 48.34690 11.78238 1485 ft 25 kts 84°
2026-05-05 17:20 48.34711 11.78510 1477 ft 27 kts 83°
2026-05-05 17:20 48.34732 11.78781 1485 ft 22 kts 83°
2026-05-05 17:21 48.34750 11.79018 1485 ft 23 kts 83°
2026-05-05 17:21 48.34768 11.79263 1475 ft 24 kts 83°
2026-05-05 17:21 48.34788 11.79507 1482 ft 14 kts 83°
2026-05-05 17:22 48.34945 11.79543 1477 ft 13 kts 353°
2026-05-05 17:22 48.35040 11.79525 1483 ft 14 kts 353°
2026-05-05 17:22 48.35142 11.79508 1478 ft 15 kts 353°
2026-05-05 17:22 48.35168 11.79451 1485 ft 7 kts 264°
2026-05-05 17:23 48.35162 11.79382 1485 ft 6 kts 263°
2026-05-05 17:23 48.35160 11.79353 1481 ft 0 kts 263°